Weather History for Kaiser, MO

Change the Weather History Date:

Tuesday, February 12, 2013

  Actual Average Record
Temperature  
Mean Temperature 32 °F -  
Max Temperature 44 °F 45 °F 57 °F (2009)
Min Temperature 21 °F 27 °F 5 °F (2014)
Degree Days  
Heating Degree Days 32    
Moisture  
Dew Point 25 °F    
Average Humidity 69    
Maximum Humidity 87    
Minimum Humidity 46    
Precipitation  
Precipitation 0.00 in - - ()
Sea Level Pressure  
Sea Level Pressure 30.08 in    
Wind  
Wind Speed 2 mph (East)    
Max Wind Speed 10 mph    
Max Gust Speed -    
Visibility 10 miles    
Events      
Averages and records for this station are not official NWS values.
T = Trace of Precipitation, MM = Missing Value Source: NWS Daily Summary

Daily Weather History Graph

Daily Weather History Graph

Search for Another Location

Airport:

Trip Planner

Search our weather history database for the weather conditions in past years. The results will help you decide how hot, cold, wet, or windy it might be!

Date:

Astronomy

Feb. 12, 2013 Rise Set
Actual Time 7:03 AM CST 5:45 PM CST
Civil Twilight 6:36 AM CST 6:12 PM CST
Nautical Twilight 6:05 AM CST 6:43 PM CST
Astronomical Twilight 5:34 AM CST 7:14 PM CST
Moon 8:04 AM CST (2/12) 8:43 PM CST (2/12)
Length of Visible Light 11h 36m
Length of Day
10h 42m
Waxing Crescent, 7% of the Moon is Illuminated
Feb 12
Waxing Crescent
Feb 17
First Quarter
Feb 25
Full
Mar 4
Last Quarter
Mar 11
New

Hourly Weather History & Observations

Time (CST) Temp. Windchill Dew Point Humidity Pressure Visibility Wind Dir Wind Speed Gust Speed Precip Events Conditions
12:15 AM 26.6 °F - 19.4 °F 74% 30.18 in 10.0 mi Calm Calm - N/A   Clear
12:35 AM 26.6 °F - 21.2 °F 80% 30.17 in 10.0 mi Calm Calm - N/A   Clear
12:55 AM 26.6 °F - 19.4 °F 74% 30.18 in 10.0 mi Calm Calm - N/A   Clear
1:15 AM 26.6 °F - 21.2 °F 80% 30.17 in 10.0 mi Calm Calm - N/A   Clear
1:35 AM 26.6 °F - 19.4 °F 74% 30.18 in 10.0 mi Calm Calm - N/A   Clear
1:55 AM 26.6 °F - 21.2 °F 80% 30.19 in 10.0 mi Calm Calm - N/A   Clear
2:15 AM 24.8 °F - 19.4 °F 80% 30.18 in 10.0 mi Calm Calm - N/A   Clear
2:35 AM 24.8 °F - 19.4 °F 80% 30.18 in 10.0 mi Calm Calm - N/A   Clear
2:55 AM 26.6 °F - 21.2 °F 80% 30.17 in 10.0 mi Calm Calm - N/A   Clear
3:15 AM 24.8 °F - 21.2 °F 86% 30.15 in 10.0 mi Calm Calm - N/A   Clear
3:35 AM 24.8 °F - 19.4 °F 80% 30.15 in 10.0 mi Calm Calm - N/A   Clear
3:55 AM 24.8 °F - 21.2 °F 86% 30.15 in 10.0 mi Calm Calm - N/A   Clear
4:15 AM 24.8 °F - 19.4 °F 80% 30.16 in 10.0 mi Calm Calm - N/A   Clear
4:35 AM 24.8 °F - 21.2 °F 86% 30.15 in 10.0 mi Calm Calm - N/A   Clear
4:55 AM 24.8 °F - 19.4 °F 80% 30.15 in 10.0 mi Calm Calm - N/A   Clear
5:15 AM 23.0 °F - 19.4 °F 86% 30.15 in 10.0 mi Calm Calm - N/A   Clear
5:35 AM 23.0 °F 17.0 °F 19.4 °F 86% 30.13 in 10.0 mi NE 4.6 mph - N/A   Clear
5:55 AM 24.8 °F - 19.4 °F 80% 30.14 in 10.0 mi Calm Calm - N/A   Clear
6:15 AM 23.0 °F - 19.4 °F 86% 30.14 in 10.0 mi Calm Calm - N/A   Clear
6:35 AM 21.2 °F 16.4 °F 17.6 °F 86% 30.14 in 10.0 mi North 3.5 mph - N/A   Clear
6:55 AM 24.8 °F - 21.2 °F 86% 30.15 in 10.0 mi Calm Calm - N/A   Clear
7:15 AM 24.8 °F 20.5 °F 17.6 °F 74% 30.17 in 10.0 mi South 3.5 mph - N/A   Clear
7:35 AM 23.0 °F - 19.4 °F 86% 30.15 in 10.0 mi Calm Calm - N/A   Clear
7:55 AM 24.8 °F - 21.2 °F 86% 30.15 in 10.0 mi Calm Calm - N/A   Clear
8:15 AM 26.6 °F - 21.2 °F 80% 30.16 in 10.0 mi Calm Calm - N/A   Clear
8:35 AM 28.4 °F - 23.0 °F 80% 30.17 in 10.0 mi Calm Calm - N/A   Clear
8:55 AM 28.4 °F 23.3 °F 24.8 °F 86% 30.14 in 10.0 mi ENE 4.6 mph - N/A   Clear
9:15 AM 30.2 °F 26.7 °F 24.8 °F 80% 30.13 in 10.0 mi ESE 3.5 mph - N/A   Clear
9:35 AM 32.0 °F 28.7 °F 24.8 °F 75% 30.12 in 10.0 mi ESE 3.5 mph - N/A   Clear
9:55 AM 33.8 °F 30.8 °F 26.6 °F 75% 30.12 in 10.0 mi ESE 3.5 mph - N/A   Clear
10:15 AM 35.6 °F 32.8 °F 26.6 °F 70% 30.13 in 10.0 mi South 3.5 mph - N/A   Clear
10:35 AM 35.6 °F 32.8 °F 26.6 °F 70% 30.12 in 10.0 mi ESE 3.5 mph - N/A   Clear
10:55 AM 39.2 °F - 26.6 °F 61% 30.12 in 10.0 mi Calm Calm - N/A   Clear
11:15 AM 41.0 °F 37.1 °F 26.6 °F 57% 30.11 in 10.0 mi East 5.8 mph - N/A   Clear
11:35 AM 41.0 °F 38.0 °F 26.6 °F 57% 30.12 in 10.0 mi East 4.6 mph - N/A   Clear
11:55 AM 42.8 °F - 24.8 °F 49% 30.12 in 10.0 mi Calm Calm - N/A   Clear
12:15 PM 42.8 °F 39.3 °F 24.8 °F 49% 30.11 in 10.0 mi ESE 5.8 mph - N/A   Clear
12:35 PM 42.8 °F - 24.8 °F 49% 30.10 in 10.0 mi Calm Calm - N/A   Clear
12:55 PM 42.8 °F 40.1 °F 24.8 °F 49% 30.08 in 10.0 mi NE 4.6 mph - N/A   Partly Cloudy
1:15 PM 44.6 °F - 24.8 °F 46% 30.07 in 10.0 mi Calm Calm - N/A   Scattered Clouds
1:35 PM 42.8 °F - 24.8 °F 49% 30.06 in 10.0 mi Calm Calm - N/A   Partly Cloudy
1:55 PM 44.6 °F - 24.8 °F 46% 30.06 in 10.0 mi Calm Calm - N/A   Mostly Cloudy
2:15 PM 44.6 °F 41.4 °F 26.6 °F 49% 30.05 in 10.0 mi ENE 5.8 mph - N/A   Overcast
2:35 PM 44.6 °F 41.4 °F 24.8 °F 46% 30.04 in 10.0 mi NE 5.8 mph - N/A   Overcast
2:55 PM 44.6 °F 42.2 °F 24.8 °F 46% 30.03 in 10.0 mi East 4.6 mph - N/A   Overcast
3:15 PM 44.6 °F 41.4 °F 26.6 °F 49% 30.03 in 10.0 mi NE 5.8 mph - N/A   Overcast
3:35 PM 42.8 °F 38.6 °F 26.6 °F 53% 30.02 in 10.0 mi ENE 6.9 mph - N/A   Overcast
3:55 PM 42.8 °F 39.3 °F 26.6 °F 53% 30.02 in 10.0 mi ENE 5.8 mph - N/A   Overcast
4:15 PM 42.8 °F 38.6 °F 26.6 °F 53% 30.01 in 10.0 mi NE 6.9 mph - N/A   Overcast
4:35 PM 42.8 °F 38.6 °F 26.6 °F 53% 30.00 in 10.0 mi North 6.9 mph - N/A   Overcast
4:55 PM 42.8 °F 40.1 °F 26.6 °F 53% 30.00 in 10.0 mi NNE 4.6 mph - N/A   Overcast
5:15 PM 41.0 °F 38.0 °F 26.6 °F 57% 30.00 in 10.0 mi NNE 4.6 mph - N/A   Overcast
5:35 PM 41.0 °F 37.1 °F 26.6 °F 57% 29.99 in 10.0 mi North 5.8 mph - N/A   Overcast
5:55 PM 41.0 °F 39.0 °F 26.6 °F 57% 29.99 in 10.0 mi NNE 3.5 mph - N/A   Overcast
6:15 PM 39.2 °F - 26.6 °F 61% 29.99 in 10.0 mi Calm Calm - N/A   Overcast
6:35 PM 39.2 °F 37.0 °F 26.6 °F 61% 30.00 in 10.0 mi South 3.5 mph - N/A   Overcast
6:55 PM 41.0 °F - 26.6 °F 57% 29.99 in 10.0 mi Calm Calm - N/A   Overcast
7:15 PM 39.2 °F - 26.6 °F 61% 29.99 in 10.0 mi Calm Calm - N/A   Overcast
7:35 PM 39.2 °F - 26.6 °F 61% 29.98 in 10.0 mi Calm Calm - N/A   Overcast
7:55 PM 39.2 °F 35.0 °F 26.6 °F 61% 29.98 in 10.0 mi South 5.8 mph - N/A   Overcast
8:15 PM 39.2 °F 35.0 °F 28.4 °F 65% 29.99 in 10.0 mi SW 5.8 mph - N/A   Overcast
8:35 PM 39.2 °F 34.2 °F 30.2 °F 70% 29.98 in 10.0 mi SSW 6.9 mph - N/A   Overcast
8:55 PM 37.4 °F 30.3 °F 30.2 °F 75% 29.98 in 10.0 mi South 10.4 mph - N/A   Overcast
9:15 PM 37.4 °F 34.9 °F 30.2 °F 75% 29.98 in 10.0 mi West 3.5 mph - N/A   Overcast
9:35 PM 37.4 °F 32.1 °F 30.2 °F 75% 30.00 in 10.0 mi West 6.9 mph - N/A   Overcast
9:55 PM 37.4 °F 34.9 °F 30.2 °F 75% 30.00 in 10.0 mi West 3.5 mph - N/A   Overcast
10:15 PM 37.4 °F 33.8 °F 30.2 °F 75% 30.00 in 10.0 mi SW 4.6 mph - N/A   Overcast
10:35 PM 37.4 °F 32.8 °F 30.2 °F 75% 30.00 in 10.0 mi West 5.8 mph - N/A   Overcast
10:55 PM 37.4 °F 32.8 °F 30.2 °F 75% 30.01 in 10.0 mi WSW 5.8 mph - N/A   Overcast
11:15 PM 37.4 °F 32.8 °F 30.2 °F 75% 30.00 in 10.0 mi WSW 5.8 mph - N/A   Overcast
11:35 PM 35.6 °F 31.7 °F 30.2 °F 81% 30.00 in 10.0 mi SW 4.6 mph - N/A   Overcast
11:55 PM 35.6 °F 31.7 °F 32.0 °F 87% 29.99 in 10.0 mi WSW 4.6 mph - N/A   Overcast